DIRECTV 9S (29494 NORAD) Tracking and Keplerian Element Data

This shows tracking and keplerian element data for the satellite.

Feedback or suggestion? Click here.




ElementValue
Catalog29494
NameDIRECTV 9S
Epoch Orbit4462
Epoch Day349.51568613
Epoch Year2018
RAAN259.7415
Inclination0.0184
Eccentricity0.0002866
Argument of Perigee1.3479
Mean Anonmoly267.5904
Mean Motion1.00271461
Decay Rate-1.01E-06
L11 29494U 06043A 18349.51568613 -.00000101 00000-0 00000+0 0 9993
L22 29494 0.0184 259.7415 0002866 1.3479 267.5904 1.00271461 44623

Live tracking and technical data element details for DIRECTV 9S (NORAD 29494). DIRECTV 9S can be tracked NOW for your location showing map with azimuth and elevation plus other details from your city location.

Track the satellite on the map from your city or location and see movement details for azimuth, elevation, latitude, longitude, range, height, and movement on the map or in text.







IsCatalogInMostPopularTable: catalog: 29494, numindb: 59
Update: records affected: 1



GetName: 29494 DIRECTV 9S

Hit Count: updated at: Sun, 16 Dec 2018 11:37:57 GMT